Time,TemperatureF,DewpointF,PressureIn,WindDirection,WindDirectionDegrees,WindSpeedMPH,WindSpeedGustMPH,Humidity,HourlyPrecipIn,Conditions,Clouds,dailyrainin,SoftwareType,DateUTC
2013-09-02 00:04:00,71.0,70.0,29.93,South,181,0.0,0.0,97,0.00,,,0.01,,2013-09-02 04:04:00,
2013-09-02 00:14:00,71.0,70.0,29.93,South,181,0.0,0.0,97,0.00,,,0.01,,2013-09-02 04:14:00,
2013-09-02 00:54:00,71.0,70.0,29.92,SSE,157,0.0,0.0,98,0.00,,,0.01,,2013-09-02 04:54:00,
2013-09-02 01:23:00,71.0,70.0,29.92,South,169,0.0,0.0,98,0.00,,,0.01,,2013-09-02 05:23:00,
2013-09-02 01:52:00,71.0,70.0,29.92,South,183,0.0,0.0,98,0.00,,,0.01,,2013-09-02 05:52:00,
2013-09-02 02:22:00,71.0,70.0,29.91,South,183,0.0,0.0,98,0.00,,,0.01,,2013-09-02 06:22:00,
2013-09-02 02:43:00,71.0,70.0,29.90,South,183,0.0,0.0,98,0.00,,,0.01,,2013-09-02 06:43:00,
2013-09-02 02:52:00,71.0,70.0,29.90,South,188,0.0,0.0,98,0.00,,,0.01,,2013-09-02 06:52:00,
2013-09-02 03:21:00,70.0,69.0,29.90,South,188,0.0,0.0,98,0.00,,,0.01,,2013-09-02 07:21:00,
2013-09-02 03:52:00,71.0,70.0,29.88,South,177,0.0,0.0,98,0.00,,,0.01,,2013-09-02 07:52:00,
2013-09-02 04:22:00,70.0,69.0,29.88,SSE,164,0.0,0.0,98,0.00,,,0.01,,2013-09-02 08:22:00,
2013-09-02 04:52:00,70.0,69.0,29.88,SSE,168,0.0,0.0,98,0.00,,,0.01,,2013-09-02 08:52:00,
2013-09-02 05:22:00,70.0,69.0,29.88,South,169,0.0,0.0,98,0.00,,,0.01,,2013-09-02 09:22:00,
2013-09-02 05:53:00,69.0,68.0,29.88,SSE,157,0.0,0.0,98,0.00,,,0.01,,2013-09-02 09:53:00,
2013-09-02 06:23:00,69.0,68.0,29.90,SSE,157,0.0,0.0,98,0.00,,,0.01,,2013-09-02 10:23:00,
2013-09-02 06:53:00,70.0,69.0,29.90,South,169,0.0,0.0,98,0.00,,,0.01,,2013-09-02 10:53:00,
2013-09-02 07:22:00,71.0,70.0,29.89,SSE,152,0.0,0.0,98,0.00,,,0.01,,2013-09-02 11:22:00,
2013-09-02 07:52:00,71.0,70.0,29.89,South,179,0.0,0.0,98,0.00,,,0.01,,2013-09-02 11:52:00,
2013-09-02 08:21:00,70.0,69.0,29.89,SSE,164,0.0,0.0,98,0.00,,,0.01,,2013-09-02 12:21:00,
2013-09-02 08:52:00,71.0,70.0,29.89,SSE,161,0.0,0.0,98,0.00,,,0.01,,2013-09-02 12:52:00,
2013-09-02 09:22:00,71.0,71.0,29.88,SSE,156,0.0,0.0,99,0.00,,,0.01,,2013-09-02 13:22:00,
2013-09-02 09:32:00,71.0,71.0,29.88,SSE,156,0.0,0.0,99,0.00,,,0.01,,2013-09-02 13:32:00,
2013-09-02 09:52:00,72.0,72.0,29.88,South,173,0.0,0.0,99,0.00,,,0.01,,2013-09-02 13:52:00,
2013-09-02 10:11:00,72.0,71.0,29.89,SE,143,0.0,0.0,98,0.00,,,0.01,,2013-09-02 14:11:00,
2013-09-02 10:22:00,72.0,71.0,29.89,SE,143,0.0,0.0,98,0.00,,,0.01,,2013-09-02 14:22:00,
2013-09-02 10:52:00,71.0,70.0,29.89,SSE,161,0.0,1.0,98,0.00,,,0.01,,2013-09-02 14:52:00,
2013-09-02 11:23:00,71.0,70.0,29.89,South,191,6.0,6.0,98,0.00,,,0.01,,2013-09-02 15:23:00,
2013-09-02 11:54:00,72.0,72.0,29.88,South,190,0.0,6.0,99,0.00,,,0.01,,2013-09-02 15:54:00,
2013-09-02 12:24:00,72.0,71.0,29.87,SSW,202,0.0,6.0,98,0.00,,,0.01,,2013-09-02 16:24:00,
2013-09-02 12:53:00,72.0,71.0,29.85,SSE,152,0.0,9.0,98,0.00,,,0.01,,2013-09-02 16:53:00,
2013-09-02 13:23:00,71.0,70.0,29.85,SSE,164,4.0,9.0,98,0.00,,,0.01,,2013-09-02 17:23:00,
2013-09-02 13:52:00,71.0,70.0,29.86,SW,214,3.0,0.0,98,0.00,,,0.01,,2013-09-02 17:52:00,
2013-09-02 14:22:00,71.0,70.0,29.85,South,187,0.0,0.0,98,0.00,,,0.01,,2013-09-02 18:22:00,
2013-09-02 14:52:00,72.0,71.0,29.85,SSW,212,0.0,0.0,96,0.28,,,0.29,,2013-09-02 18:52:00,
2013-09-02 15:22:00,73.0,71.0,29.85,WSW,246,0.0,0.0,95,0.28,,,0.29,,2013-09-02 19:22:00,
2013-09-02 15:32:00,73.0,71.0,29.85,WSW,246,0.0,0.0,95,0.28,,,0.29,,2013-09-02 19:32:00,
2013-09-02 15:52:00,74.0,72.0,29.84,SSW,197,0.0,0.0,95,0.00,,,0.29,,2013-09-02 19:52:00,
2013-09-02 16:22:00,74.0,72.0,29.83,South,184,0.0,0.0,95,0.00,,,0.29,,2013-09-02 20:22:00,
2013-09-02 16:52:00,73.0,72.0,29.82,SSW,212,0.0,5.0,96,0.00,,,0.29,,2013-09-02 20:52:00,
2013-09-02 17:23:00,73.0,72.0,29.81,SW,235,0.0,5.0,97,0.00,,,0.29,,2013-09-02 21:23:00,
2013-09-02 17:54:00,72.0,71.0,29.80,SW,233,0.0,7.0,97,0.00,,,0.29,,2013-09-02 21:54:00,
2013-09-02 18:24:00,72.0,71.0,29.80,SSW,203,0.0,7.0,97,0.00,,,0.29,,2013-09-02 22:24:00,
2013-09-02 18:54:00,71.0,70.0,29.80,SSW,207,0.0,10.0,98,0.00,,,0.29,,2013-09-02 22:54:00,
2013-09-02 19:22:00,71.0,70.0,29.79,South,182,0.0,10.0,98,0.00,,,0.29,,2013-09-02 23:22:00,
2013-09-02 19:52:00,71.0,70.0,29.80,SW,220,0.0,8.0,98,0.00,,,0.29,,2013-09-02 23:52:00,
2013-09-02 20:02:00,71.0,70.0,29.80,SW,220,0.0,8.0,98,0.00,,,0.29,,2013-09-03 00:02:00,
2013-09-02 20:22:00,72.0,71.0,29.80,SW,215,0.0,8.0,98,0.00,,,0.29,,2013-09-03 00:22:00,
2013-09-02 20:42:00,71.0,70.0,29.80,South,187,0.0,0.0,98,0.00,,,0.29,,2013-09-03 00:42:00,
2013-09-02 20:52:00,71.0,70.0,29.80,SW,214,3.0,0.0,98,0.00,,,0.29,,2013-09-03 00:52:00,
2013-09-02 21:22:00,71.0,70.0,29.79,South,181,0.0,0.0,98,0.00,,,0.29,,2013-09-03 01:22:00,
2013-09-02 21:52:00,70.0,69.0,29.81,South,189,0.0,8.0,98,0.00,,,0.29,,2013-09-03 01:52:00,
2013-09-02 22:21:00,70.0,69.0,29.81,SSW,193,0.0,8.0,98,0.00,,,0.29,,2013-09-03 02:21:00,
2013-09-02 22:52:00,70.0,69.0,29.82,SSW,196,0.0,0.0,98,0.00,,,0.29,,2013-09-03 02:52:00,
2013-09-02 23:23:00,70.0,69.0,29.83,SSW,209,0.0,0.0,98,0.00,,,0.29,,2013-09-03 03:23:00,
2013-09-02 23:55:00,70.0,70.0,29.83,SSW,211,0.0,0.0,99,0.00,,,0.28,,2013-09-03 03:55:00,